User: anonymous
Location: Mt. Cuba Astronomical Observatory
(39.8100°N, 75.6300°W)
Time: 06:08:36
(UTC-04:00)
Language:

Cosmos 2058 - Orbit

View from above orbital plane
View from above orbital plane
View from above satellite
View from above satellite

Ground track
Ground track

The orbit data is extracted from the following two-line orbital elements,

1 20465U 90010A   14232.39128286  .00000731  00000-0  64375-4 0  1967
2 20465 082.4942 158.6017 0017315 160.6216 199.5667 14.94975261331003
Epoch (UTC): 20 August 2014 09:23:26
Eccentricity: 0.0017315
inclination: 82.4942°
perigee height: 570 km
apogee height: 594 km
right ascension of ascending node: 158.6017°
argument of perigee: 160.6216°
revolutions per day: 14.94975261
mean anomaly at epoch: 199.5667°
orbit number at epoch: 33100

The dashed part of the orbit path shows where the satellite is in the earth's shadow,  

DLR